User: anonymous   Login
Location: Newark
(41.7475°N, 12.6504°E)
Time: 17:07:36
(UTC+00:00)
Language:

LightSail 2 - Orbit

View from above orbital plane
View from above orbital plane
View from above satellite
View from above satellite

Ground track
Ground track

The orbit data is extracted from the following two-line orbital elements,

1 44420U 19036AC  20025.15504212  .00004679  00000-0  10348-2 0  9996
2 44420  24.0093 298.6021 0010488 343.9326  16.0825 14.54212980 29271
Epoch (UTC): 25 January 2020 03:43:15
Eccentricity: 0.0010488
inclination: 24.0093°
perigee height: 704 km
apogee height: 719 km
right ascension of ascending node: 298.6021°
argument of perigee: 343.9326°
revolutions per day: 14.54212980
mean anomaly at epoch: 16.0825°
orbit number at epoch: 2927

The dashed part of the orbit path shows where the satellite is in the earth's shadow,  

DLR